www.pogodaiklimat.ru

Погода и климат >> Архив погоды >> Узбекистан >> Жаслык


ПОГОДА в Жаслыке

  • Прогноз погоды в Жаслыке
  • Монитор погоды в Жаслыке
  • Климат города

АРХИВ ПОГОДЫ в Жаслыке

Время (UTC), дата Ветер
(напр.,м/с)
 
Видим.   Явления Облачность Т
(С)
Тd
(С)
f
(%)
Тe
(С)
Тes
(С)
Комфортность P
(гПа)
Po
(гПа)
Тmin
(С)
Tmax
(С)
R
(мм)
S
(см)
03 16.03 В 12 20 км 6/0
[Ci fib]
-3.5 -10.5 58 -13 -13 1022.5 1006.1
06 16.03 В 15 20 км 6/0
[Ci sp]
+5.4 -4.2 50 -1 -1 1022.5 1006.7 -3.5
09 16.03 В 17 20 км 4/0
[Ci sp]
+10.0 -1.2 46 +5 +5 1021.2 1005.6
12 16.03 В 18
{23}
20 км ясно +11.8 -3.8 33 +7 +7 1020.3 1004.8
15 16.03 В 13 20 км ясно +6.5 -6.6 39 +1 +1 1020.3 1004.5 +11.8
18 16.03 В 17
{22}
20 км ясно +4.0 -7.2 44 -4 -4 1021.0 1005.0 +11.8
21 16.03 В 20 20 км 3/0
[Ci sp]
+1.4 -8.2 49 -8 -8 1021.5 1005.4
00 17.03 В 20 20 км 6/0
[Ci sp]
0.0 -9.0 51 -10 -10 1019.8 1003.6
03 17.03 В 20 20 км 10/10 600 м
[Sc]
-3.5 -11.0 56 -15 -15 1020.0 1003.6
06 17.03 В 20 20 км 10/10 600 м
[Sc]
+1.2 -8.3 49 -8 -8 1019.9 1003.8 -3.5
09 17.03 ЮВ 20
{26}
20 км 10/10 600 м
[Sc]
+4.2 -6.9 44 -4 -4 1018.9 1002.9
12 17.03 В 20
{27}
20 км 10/10 600 м
[Sc]
+5.8 -6.9 40 -1 -1 1018.0 1002.2
15 17.03 В 15 2000 м мгла 10/10 600 м
[Sc]
+4.9 -6.6 43 -2 -2 1017.7 1001.8 +5.8
18 17.03 В 15 20 км 10/10 600 м
[Sc]
+4.0 -6.8 45 -3 -3 1017.5 1001.6 +5.8
21 17.03 В 13 20 км 10/10 600 м
[Sc]
+3.6 -6.1 49 -3 -3 1017.0 1001.1
00 18.03 В 13 20 км 10/10 600 м
[Sc]
+1.8 -7.1 52 -6 -6 1016.6 1000.6
03 18.03 ЮВ 12 20 км 10/10 600 м
[Sc]
+1.0 -7.0 55 -7 -7 1017.2 1001.2
06 18.03 В 5 20 км 10/10 600 м
[Sc]
+2.0 -7.3 50 -3 -3 1016.1 1000.1 +1.0
09 18.03 В 2 20 км 10/10 600 м
[Sc]
+5.3 -5.6 45 +3 +3 1016.2 1000.4
12 18.03 В 1 20 км 10/10 600 м
[Sc]
+6.4 -6.3 40 +6 +6 1016.9 1001.1
15 18.03 В 3 20 км 6/6 600 м
[Sc]
+4.8 -6.8 43 +2 +2 1017.7 1001.8 +6.4
18 18.03 В 2 20 км 5/5 600 м
[Sc]
+1.2 -8.1 50 -2 -2 1019.1 1003.0 +6.4
21 18.03 В 3 20 км ясно -0.4 -9.1 52 -4 -4 1018.6 1002.5
00 19.03 В 3 20 км 6/0
[Ci sp]
-2.0 -10.5 52 -6 -6 1018.3 1002.1
03 19.03 В 4 20 км 10/0
[Ac trans Ci sp]
-1.5 -9.2 56 -7 -6 1018.2 1002.0
06 19.03 В 3 20 км 9/3 600 м
[Sc Ac trans Ci sp]
+4.7 -6.1 45 +2 +5 1019.7 1003.7 -2.0
09 19.03 ЮВ 13
{18}
20 км 8/0
[Ci sp]
+10.8 1016.5 1002.4
12 19.03 ЮВ 12 10 км слабый ливневой дождь 10/10 600 м
[Cb cap]
+11.5 +2.9 55 +8 +8 1015.3 999.9
15 19.03 ЮВ 15 20 км в посл. час ливневой дождь 10/9 600 м
[Cb cap]
+8.2 +4.8 79 +2 +2 1013.5 997.8 +11.5
18 19.03 ЮВ 20 20 км 10/10 600 м
[Sc]
+8.4 +3.6 72 +2 +2 1012.9 997.3 +11.5 5
21 19.03 В 5 20 км 9/9 600 м
[Cb cap]
+8.0 +1.9 65 +5 +5 1012.5 996.9
00 20.03 СВ 3 20 км 5/0
[Ci sp]
+5.6 -1.4 61 +3 +3 1010.4 994.7
03 20.03 В 20 20 км 10/10 600 м
[Sc]
+4.6 -2.8 59 -4 -4 1009.2 993.4
06 20.03 В 18
{23}
20 км 10/0
[Ac trans Ci sp]
+8.5 -1.7 49 +3 +3 1009.1 993.5 +4.0
09 20.03 В 18
{23}
20 км 10/10 600 м
[Cb cap]
+11.5 -0.7 43 +7 +7 1016.4 991.1
12 20.03 В 22
{27}
20 км 10/10 600 м
[Cb cap]
+11.8 -1.2 40 +7 +7 1004.9 989.6
15 20.03 В 22 20 км 10/10 600 м
[Cb cap]
+11.0 -0.7 44 +6 +6 1004.5 989.2 +11.8
18 20.03 СВ 23
{28}
20 км 10/10 600 м
[Cb cap]
+10.8 +0.2 48 +5 +5 1002.7 987.4 +11.8
21 20.03 В 20
{25}
20 км 10/10 600 м
[Cb cap]
+8.6 -0.7 52 +2 +2 1002.1 986.7
00 21.03 В 15
{20}
20 км 10/10 600 м
[Cb cap]
+7.8 -0.5 56 +2 +2 1001.6 986.2
03 21.03 В 17 10 км слабый ливневой дождь 10/10 600 м
[Cb cap]
+5.0 +2.0 81 -3 -3 1001.7 986.2
06 21.03 В 20
{25}
20 км {ливн. осадки} 10/10 600 м
[Cb cap]
+5.8 +0.7 70 -2 -2 1002.9 987.4 +5.0 3
09 21.03 ЮВ 12 20 км 10/10 600 м
[Cb cap]
+8.5 +0.4 57 +3 +3 1003.9 988.4
12 21.03 ЮЗ 12 20 км 10/10 600 м
[Cb cap]
+11.2 +1.5 51 +7 +7 1004.8 989.5
15 21.03 З 10 20 км 10/10 600 м
[Cb cap]
+10.2 0.0 49 +6 +6 1007.1 991.7 +11.2
18 21.03 ЮЗ 7 20 км 10/10 600 м
[Cb cap]
+9.2 -0.7 50 +6 +6 1009.6 994.2 +11.2 2
21 21.03 ЮЗ 3 20 км 10/10 600 м
[Cb cap]
+7.8 -0.7 55 +5 +5 1011.2 995.6
00 22.03 ЮЗ 7 20 км 10/10 600 м
[Cb cap]
+6.8 -0.5 60 +2 +2 1013.1 997.4
03 22.03 СЗ 3 20 км 10/10 600 м
[Cb cap]
+6.2 -0.3 63 +3 +3 1015.7 999.9
06 22.03 З 5 20 км 10/10 600 м
[Sc]
+7.0 -0.2 60 +3 +3 1017.8 1002.1 +6.2
09 22.03 З 3 20 км 10/10 600 м
[Cb cap]
+8.8 -0.7 51 +7 +7 1018.2 1002.5
12 22.03 СЗ 2 20 км 10/10 600 м
[Cb cap]
+8.3 -2.5 46 +7 +7 1018.9 1003.2
15 22.03 С 3 20 км 10/10 600 м
[Cb cap]
+7.6 -1.9 51 +5 +5 1019.5 1003.8 +8.8
18 22.03 СВ 2 10 км слабый ливневой дождь 10/10 600 м
[Cb cap]
+6.8 +1.6 69 +5 +5 1020.7 1004.9 +8.8
21 22.03 СВ 5 20 км в посл. час ливневой дождь 10/10 600 м
[Cb cap]
+5.8 +3.4 85 +1 +1 1021.3 1005.5

 

Местоположение метеостанции Жаслык (Каракалпакстан, Узбекистан): широта 43.88 долгота 57.52 высота над уровнем моря 128 м.

В архиве по умолчанию представлена погода в Жаслыке за последнюю неделю. Архивные данные за месяц целиком и за предыдущие месяцы, начиная с января 2011 года, Вы можете получить, выбрав интересующий диапазон дат из раскрывающегося списка и нажав кнопку "Ввод!".

Внимание! Время в таблицах - всемирное. Для получения местного времени необходимо прибавить поправку, которая в Жаслыке равна 5 ч.

Смотрите также архив погоды в соседних городах и на ближайших метеорологических станциях:

Погода в Муйнаке (Каракалпакстан, Узбекистан) (98 км)
Погода в Каракалпакии (Каракалпакстан, Узбекистан) (144 км)
Погода в Кунграде (Каракалпакстан, Узбекистан) (144 км)
Погода в Саме (Мангистауская область, Казахстан) (202 км)
Погода в Чимбае (Каракалпакстан, Узбекистан) (213 км)
Погода в Кенеургенче (Дашогузский велаят, Туркменистан) (219 км)
Погода в Тахтакупыре (Каракалпакстан, Узбекистан) (231 км)
Погода в Нукусе (Каракалпакстан, Узбекистан) (233 км)
Погода в Бейнеу (Мангистауская область, Казахстан) (244 км)
Погода в Шах-Сенеме (Дашогузский велаят, Туркменистан) (274 км)

Пояснения к столбцам:

Ветер - указаны скорость ветра в м/с - средняя за 10 мин, порывы в срок и между сроками (в фигурных скобках) и направление, откуда дует ветер: С - северный, СВ - северо-восточный, В - восточный, ЮВ - юго-восточный, Ю - южный, ЮЗ - юго-западный, З - западный, СЗ - северо-западный.
Видимость - горизонтальная дальность видимости в метрах или километрах. При видимости от 1 до 10 км при отсутствии осадков обычно наблюдается дымка, при ухудшении видимости до 1 км и менее - туман. В сухую погоду видимость может ухудшаться дымом, пылью или мглою.
Явления - указаны атмосферные явления, наблюдавшиеся в срок или в последний час перед сроком; фигурными скобками обозначены явления, наблюдавшиеся между сроками (за 1-3 часа до срока); квадратными скобками обозначены град или гололедные отложения с указанием их диаметра в мм.
Облачность - указаны через наклонную черту общая и нижняя облачность в баллах и высота нижней границы облаков в метрах; квадратными скобками обозначены формы облаков: Ci - перистые, Cs - перисто-слоистые, Cc - перисто-кучевые, Ac - высококучевые, As - высокослоистые, Sc - слоисто-кучевые, Ns - слоисто-дождевые, Cu - кучевые, Cb - кучево-дождевые. Подробнее классификацию облаков см. в Атласе облаков (PDF).
T - Температура воздуха - температура, измеренная на высоте 2 м над землей.
Td - Температура точки росы - температура, при понижении до которой содержащийся в воздухе водяной пар достигнет насыщения.
f - Относительная влажность воздуха - влажноcть воздуха, измеренная на высоте 2 м над землей.
Te - Эффективная температура - температура, которую ощущает одетый по сезону человек в тени. Характеристика душности погоды. При расчете учитывается влияние влажности воздуха и скорости ветра на теплоощущения человека.
Tes - Эффективная температура на солнце - температура, которую ощущает человек, с поправкой на солнечный нагрев. Характеристика знойности погоды. Зависит от высоты солнца над горизонтом, облачности и скорости ветра. Ночью, в пасмурную погоду, а также при ветре 12 м/с и более поправка равна нулю.
P - Атмосферное давление - приведенное к уровню моря атмосферное давление.
Po - Атмосферное давление - измеренное на уровне метеостанции атмосферное давление.
Tmin - Минимальная температура - минимум температуры воздуха на высоте 2 м над землей.
Tmax - Максимальная температура - максимум температуры воздуха на высоте 2 м над землей.
R - Количество осадков - Количество выпавших осадков, мм. При наведении курсора мыши на число - период времени, за который выпало указанное количество осадков.
S - Снежный покров - Высота снежного покрова, см. При наведении курсора мыши на число - состояние снежного покрова и степень покрытия местности в баллах.